Regional Weather Roundup
Issued by NWS

Home | Current Version | Previous Version | Graphics & Text | Print | Product List | Glossary On
Versions: 1 2 3 4 5 6 7 8 9 10 11 12 13 14 15 16 17 18 19 20 21 22 23 24 25 26 27 28 29 30 31 32 33 34 35 36 37 38 39 40 41 42 43 44 45 46 47 48 49 50
000
ASUS43 KIND 192359
RWRIN

WEATHER ROUNDUP FOR INDIANA
NATIONAL WEATHER SERVICE INDIANAPOLIS IN
700 PM EST SUN FEB 19 2017

NOTE: "FAIR" INDICATES FEW OR NO CLOUDS BELOW 12,000 FEET WITH NO
SIGNIFICANT WEATHER AND/OR OBSTRUCTIONS TO VISIBILITY.

* - STATION DOES NOT REPORT WEATHER SUCH AS PRECIPITATION OR FOG.

+ - STATION NOT QUALITY CONTROLLED BY THE NATIONAL WEATHER SERVICE.
    USE DATA WITH CAUTION...ESPECIALLY DEWPOINT AND RELATIVE
    HUMIDITY OBSERVATIONS.

INZ001>003-010>013-019-020-200100-
NORTHWEST INDIANA

CITY           SKY/WX    TMP DP  RH WIND       PRES   REMARKS
GARY /AIRPORT/ PTCLDY    46  32  57 CALM      30.08R
KNOX *+        CLEAR     50   9  18 CALM      30.08S
MONTICELLO +   CLEAR     57  43  59 CALM      30.07S
6HR MIN TEMP:  55; 6HR MAX TEMP:  63;


$$

LMZ046-743>745-200100-
SOUTHERN LAKE MICHIGAN

STATION/POSITION TIME  TEMP    WIND        PRES    WAVE
                       AIR SEA DIR/SP/G            HT
                 (UTC) (F)     (DEG/KT/KT) (MB)    (FT)
BURNS HARBOR     2340   39      80/  5/  8 1019.0S
MICHIGAN CITY    2330   53      50/  5/  5   N/A

$$

INZ004-005-014>016-021>024-200100-
NORTH CENTRAL INDIANA

CITY           SKY/WX    TMP DP  RH WIND       PRES   REMARKS
GOSHEN         CLEAR     55  30  38 N3        30.09R
6HR MIN TEMP:  54; 6HR MAX TEMP:  64;

SOUTH BEND     CLEAR     50  24  36 CALM      30.10R
6HR MIN TEMP:  50; 6HR MAX TEMP:  65;

WARSAW +       CLEAR     52  32  46 CALM      30.09S

$$

INZ006>009-017-018-025>027-200100-
NORTHEAST INDIANA

CITY           SKY/WX    TMP DP  RH WIND       PRES   REMARKS
ANGOLA *+      CLEAR     54  30  40 W3        30.09R
FORT WAYNE     PTCLDY    53  33  46 W5        30.10R
6HR MIN TEMP:  52; 6HR MAX TEMP:  64;

KENDALLVILLE + CLEAR     55  35  46 W3        30.09R

$$

INZ028-029-035-036-043>045-051>053-200100-
WEST CENTRAL INDIANA

CITY           SKY/WX    TMP DP  RH WIND       PRES   REMARKS
LAFAYETTE      CLEAR     55  43  63 CALM      30.08S
6HR MIN TEMP:  55; 6HR MAX TEMP:  64;

TERRE HAUTE    CLEAR     54  46  74 S7        30.09F
6HR MIN TEMP:  54; 6HR MAX TEMP:  65;


$$

INZ030>032-037>040-046>048-054>057-064-065-200100-
CENTRAL INDIANA

CITY           SKY/WX    TMP DP  RH WIND       PRES   REMARKS
COLUMBUS       PTCLDY    52  46  82 SE6       30.12R
FRANKFORT +    CLEAR     55  45  67 SE3       30.11S
6HR MIN TEMP:  55; 6HR MAX TEMP:  67;

GREENWOOD *+   CLEAR     57  47  71 SE5       30.11S
6HR MIN TEMP:  55; 6HR MAX TEMP:  64;

INDIANAPOLIS   PTCLDY    56  45  66 S6        30.10R
6HR MIN TEMP:  55; 6HR MAX TEMP:  65;

-EAGLE CREEK   CLEAR     61  43  51 SW3       30.09R
6HR MIN TEMP:  57; 6HR MAX TEMP:  66;

KOKOMO +       CLEAR     53  45  74 CALM      30.10S
6HR MIN TEMP:  53; 6HR MAX TEMP:  64;

MT COMFORT *+  CLEAR     54  45  71 S6        30.12R
SHELBYVILLE    CLEAR     49  41  74 S6        30.11R
6HR MIN TEMP:  49; 6HR MAX TEMP:  61;


$$

INZ033-034-041-042-049-050-058-059-200100-
EAST CENTRAL INDIANA

CITY           SKY/WX    TMP DP  RH WIND       PRES   REMARKS
MUNCIE         CLEAR     55  43  63 CALM      30.10R
6HR MIN TEMP:  55; 6HR MAX TEMP:  65;


$$

INZ060-061-067>069-081>083-085>088-200100-
SOUTHWEST INDIANA

CITY           SKY/WX    TMP DP  RH WIND       PRES   REMARKS
EVANSVILLE     CLEAR     53  48  83 CALM      30.12S
6HR MIN TEMP:  53; 6HR MAX TEMP:  59;

HUNTINGBURG *+ CLOUDY    50  48  93 SE5       30.13R FOG
6HR MIN TEMP:  49; 6HR MAX TEMP:  56;


$$

INZ062-063-066-070>080-084-089>092-200100-
SOUTH CENTRAL AND SOUTHEAST INDIANA

CITY           SKY/WX    TMP DP  RH WIND       PRES   REMARKS
BLOOMINGTON    CLEAR     57  45  64 CALM      30.10S
6HR MIN TEMP:  51; 6HR MAX TEMP:  62;

MADISON *+     CLEAR     52  45  76 S3        30.15S
SEYMOUR +      CLEAR     54  46  76 SE7       30.12R

$$





USA.gov is the U.S. government's official web portal to all federal, state and local government web resources and services.